TimePST,TemperatureF,Dew PointF,Humidity,Sea Level PressureIn,VisibilityMPH,Wind Direction,Wind SpeedMPH,Gust SpeedMPH,PrecipitationIn,Events,Conditions,WindDirDegrees,DateUTC
12:15 AM,37.4,35.6,93,30.04,10.0,SSE,10.4,17.3,0.01,Rain,Rain,160,2012-12-19 08:15:00
12:35 AM,37.4,35.6,93,30.03,10.0,SSE,9.2,-,0.02,Rain,Light Rain,160,2012-12-19 08:35:00
12:55 AM,37.4,35.6,93,30.03,10.0,SSE,9.2,16.1,0.02,Rain,Rain,160,2012-12-19 08:55:00
1:15 AM,37.4,35.6,93,30.01,10.0,SSE,9.2,16.1,0.01,Rain,Rain,160,2012-12-19 09:15:00
1:35 AM,37.4,35.6,93,30.01,10.0,SSE,10.4,-,0.01,,Drizzle,150,2012-12-19 09:35:00
1:55 AM,37.4,35.6,93,30.00,10.0,SSE,11.5,18.4,0.01,,Drizzle,160,2012-12-19 09:55:00
2:15 AM,37.4,35.6,93,30.00,10.0,SSE,12.7,17.3,0.01,Rain,Rain,160,2012-12-19 10:15:00
2:35 AM,37.4,35.6,93,30.00,10.0,South,11.5,19.6,0.02,Rain,Light Rain,170,2012-12-19 10:35:00
2:55 AM,39.2,35.6,87,29.99,10.0,South,15.0,24.2,0.03,Rain,Light Rain,170,2012-12-19 10:55:00
3:15 AM,39.2,35.6,87,29.97,10.0,SSE,13.8,26.5,N/A,Rain,Rain,160,2012-12-19 11:15:00
3:35 AM,37.4,35.6,93,29.96,10.0,SSE,16.1,21.9,N/A,Rain,Rain,160,2012-12-19 11:35:00
3:55 AM,39.2,35.6,87,29.95,10.0,South,17.3,21.9,0.01,,Overcast,170,2012-12-19 11:55:00
4:15 AM,39.2,35.6,87,29.94,10.0,South,16.1,21.9,N/A,Rain,Rain,170,2012-12-19 12:15:00
4:35 AM,39.2,37.4,93,29.93,7.0,South,12.7,23.0,N/A,Rain,Rain,170,2012-12-19 12:35:00
4:55 AM,39.2,37.4,93,29.93,10.0,South,11.5,23.0,N/A,,Drizzle,170,2012-12-19 12:55:00
5:15 AM,41.0,37.4,87,29.92,10.0,South,17.3,25.3,0.01,Rain,Light Rain,170,2012-12-19 13:15:00
5:35 AM,41.0,37.4,87,29.91,10.0,South,16.1,23.0,0.02,Rain,Light Rain,170,2012-12-19 13:35:00
5:55 AM,41.0,37.4,87,29.91,10.0,South,13.8,17.3,0.02,Rain,Rain,170,2012-12-19 13:55:00
6:15 AM,41.0,37.4,87,29.90,10.0,South,13.8,20.7,N/A,,Drizzle,170,2012-12-19 14:15:00
6:35 AM,41.0,37.4,87,29.90,10.0,South,15.0,23.0,0.01,Rain,Rain,170,2012-12-19 14:35:00
6:55 AM,41.0,37.4,87,29.89,10.0,South,13.8,26.5,0.02,Rain,Rain,170,2012-12-19 14:55:00
7:15 AM,41.0,37.4,87,29.89,10.0,South,19.6,27.6,0.01,Rain,Light Rain,180,2012-12-19 15:15:00
7:35 AM,42.8,37.4,81,29.88,10.0,South,23.0,41.4,0.02,Rain,Light Rain,180,2012-12-19 15:35:00
7:55 AM,42.8,37.4,81,29.87,10.0,South,26.5,39.1,0.02,Rain,Light Rain,180,2012-12-19 15:55:00
8:15 AM,42.8,39.2,87,29.87,7.0,South,23.0,34.5,0.01,Rain,Light Rain,180,2012-12-19 16:15:00
8:35 AM,41.0,37.4,87,29.86,7.0,South,21.9,33.4,0.02,Rain,Light Rain,170,2012-12-19 16:35:00
8:55 AM,41.0,37.4,87,29.85,10.0,SSE,19.6,28.8,0.03,Rain,Light Rain,160,2012-12-19 16:55:00
9:15 AM,41.0,37.4,87,29.85,7.0,South,17.3,29.9,0.02,Rain,Rain,170,2012-12-19 17:15:00
9:35 AM,41.0,37.4,87,29.84,10.0,South,19.6,27.6,0.03,Rain,Light Rain,170,2012-12-19 17:35:00
9:55 AM,42.8,41.0,93,29.83,10.0,South,20.7,35.7,0.03,,Overcast,170,2012-12-19 17:55:00
10:15 AM,44.6,41.0,87,29.83,10.0,South,26.5,39.1,N/A,,Overcast,180,2012-12-19 18:15:00
10:35 AM,44.6,41.0,87,-9999,10.0,South,26.5,35.7,N/A,,Drizzle,190,2012-12-19 18:35:00
10:55 AM,44.6,41.0,87,29.82,7.0,South,25.3,43.7,N/A,,Overcast,170,2012-12-19 18:55:00
11:15 AM,46.4,41.0,81,29.81,10.0,South,28.8,42.6,N/A,,Overcast,180,2012-12-19 19:15:00
11:55 AM,46.4,42.8,87,29.78,10.0,South,33.4,46.0,N/A,,Overcast,190,2012-12-19 19:55:00
12:15 PM,46.4,42.8,87,29.78,7.0,South,32.2,41.4,N/A,,Overcast,180,2012-12-19 20:15:00
12:35 PM,46.4,42.8,87,29.77,4.0,South,31.1,47.2,N/A,Rain,Light Rain,190,2012-12-19 20:35:00
12:55 PM,46.4,42.8,87,29.75,10.0,South,33.4,48.3,N/A,,Overcast,190,2012-12-19 20:55:00
1:15 PM,48.2,42.8,82,29.75,10.0,South,28.8,49.5,N/A,,Overcast,180,2012-12-19 21:15:00
1:35 PM,46.4,42.8,87,29.74,4.0,South,27.6,41.4,0.02,Rain,Light Rain,190,2012-12-19 21:35:00
1:55 PM,46.4,42.8,87,29.73,7.0,South,27.6,47.2,0.02,Rain,Light Rain,180,2012-12-19 21:55:00
2:15 PM,46.4,42.8,87,29.73,10.0,South,24.2,41.4,N/A,,Overcast,180,2012-12-19 22:15:00
2:35 PM,48.2,42.8,82,29.71,7.0,SSW,32.2,48.3,N/A,,Overcast,200,2012-12-19 22:35:00
2:55 PM,48.2,42.8,82,29.71,5.0,South,29.9,51.8,N/A,Rain,Rain,190,2012-12-19 22:55:00
3:15 PM,50.0,42.8,76,29.70,10.0,South,35.7,48.3,N/A,,Overcast,190,2012-12-19 23:15:00
3:35 PM,50.0,42.8,76,29.70,10.0,South,41.4,51.8,N/A,,Overcast,180,2012-12-19 23:35:00
3:55 PM,50.0,42.8,76,29.70,7.0,South,35.7,52.9,N/A,,Drizzle,180,2012-12-19 23:55:00
4:15 PM,50.0,42.8,76,29.69,7.0,South,31.1,63.3,N/A,Rain,Rain,190,2012-12-20 00:15:00
4:35 PM,50.0,42.8,76,29.69,7.0,South,33.4,52.9,N/A,Rain,Rain,190,2012-12-20 00:35:00
4:55 PM,46.4,42.8,87,29.70,5.0,South,31.1,44.9,0.02,Rain,Rain,190,2012-12-20 00:55:00
5:15 PM,46.4,42.8,87,29.71,5.0,South,26.5,38.0,0.03,Rain,Rain,190,2012-12-20 01:15:00
5:35 PM,46.4,42.8,87,29.70,5.0,South,25.3,43.7,0.06,Rain,Rain,180,2012-12-20 01:35:00
5:55 PM,46.4,42.8,87,29.68,7.0,South,29.9,42.6,0.07,Rain,Light Rain,190,2012-12-20 01:55:00
6:15 PM,46.4,42.8,87,29.67,10.0,South,38.0,47.2,N/A,Rain,Light Rain,190,2012-12-20 02:15:00
6:35 PM,46.4,42.8,87,29.66,7.0,South,26.5,47.2,N/A,Rain,Light Rain,180,2012-12-20 02:35:00
6:55 PM,46.4,42.8,87,29.67,10.0,South,32.2,44.9,0.01,Rain,Rain,180,2012-12-20 02:55:00
7:15 PM,46.4,42.8,87,29.66,4.0,South,28.8,47.2,0.04,Rain,Rain,180,2012-12-20 03:15:00
7:35 PM,46.4,42.8,87,29.65,7.0,South,23.0,33.4,0.07,Rain,Light Rain,170,2012-12-20 03:35:00
7:55 PM,46.4,42.8,87,29.65,10.0,SSE,15.0,38.0,0.08,Rain,Light Rain,160,2012-12-20 03:55:00
8:15 PM,46.4,42.8,87,29.64,10.0,South,31.1,42.6,0.01,Rain,Rain,180,2012-12-20 04:15:00
8:35 PM,46.4,42.8,87,29.63,5.0,South,27.6,42.6,0.05,Rain,Light Rain,170,2012-12-20 04:35:00
8:55 PM,46.4,42.8,87,29.62,5.0,South,31.1,42.6,0.09,Rain,Light Rain,170,2012-12-20 04:55:00
9:15 PM,46.4,42.8,87,29.62,7.0,South,25.3,40.3,0.03,Rain,Rain,180,2012-12-20 05:15:00
9:35 PM,46.4,44.6,93,29.62,4.0,South,31.1,51.8,0.06,Rain,Rain,190,2012-12-20 05:35:00
9:55 PM,46.4,42.8,87,29.61,4.0,South,26.5,46.0,0.12,Rain,Rain,170,2012-12-20 05:55:00
10:15 PM,46.4,42.8,87,29.61,4.0,South,31.1,42.6,0.05,Rain,Heavy Rain,170,2012-12-20 06:15:00
10:35 PM,46.4,42.8,87,29.60,7.0,SSE,17.3,28.8,0.09,Rain,Rain,160,2012-12-20 06:35:00
11:15 PM,44.6,42.8,93,29.61,5.0,South,16.1,35.7,0.07,Rain,Heavy Rain,170,2012-12-20 07:15:00
11:35 PM,46.4,42.8,87,29.60,4.0,South,26.5,40.3,0.16,Rain,Rain,180,2012-12-20 07:35:00
11:55 PM,46.4,42.8,87,29.62,4.0,South,32.2,41.4,0.24,Rain,Heavy Rain,190,2012-12-20 07:55:00